[[{"header":{"parameterUnit":"m.s-1","parameterCategory":1,"la1":30.2991,"la2":30.254,"lo1":-89.0895,"lo2":-89.0444,"dy":0.0017,"dx":0.0017,"nx":28,"ny":28,"refTime":"2024-08-17T09:00:00:Z","depth":0,"parameterNumber":2,"parameterNumberName":"U-component_of_WINDS"},"data":[0,0,0,0,0,0,0,0,0,0,0,0,0,0,0,0,0,0,0,0,0,0,0,0,0,0,0,0,0,0,0,0,0,0,0,0,0,0,0,0,0,0,0,0,0,0,0,0,0,0,0,0,0,0,0,0,0,0,2.9098,2.9099,0,2.9242,2.9243,2.9245,2.9234,2.9232,2.923,2.9228,2.9383,2.9389,2.9395,0,0,0,0,0,0,0,0,0,0,0,0,0,2.8823,2.8828,2.9097,2.9099,2.9101,2.9241,2.9243,2.9245,2.9235,2.9232,2.923,2.9227,2.9381,2.9388,2.9396,0,0,0,0,0,0,0,0,0,0,0,0,0,2.8952,2.8829,2.9097,2.9112,2.9115,2.9241,2.9243,2.9246,2.9235,2.9232,2.9229,2.9226,2.9379,2.9388,2.9397,2.9519,0,0,2.9425,2.9429,0,0,0,0,0,0,0,0,2.8945,2.8962,2.9108,2.9112,2.9115,2.9216,2.9203,2.9338,2.9236,2.919,2.9228,2.9224,2.9331,2.9344,2.9378,2.9526,2.9532,2.9426,2.9431,2.9435,2.9438,0,0,0,0,0,0,0,2.8936,2.8956,2.9155,2.9111,2.9115,2.9115,2.913,2.9229,2.9277,2.9194,2.9193,2.921,2.9332,2.9369,2.9382,2.9535,2.9425,2.9434,2.9439,2.9443,2.9794,2.9798,0,0,0,0,0,0,2.8922,2.8948,2.915,2.9159,2.902,2.9123,2.9139,2.9187,2.9276,2.9286,2.9213,2.9209,2.9355,2.9371,2.9387,2.9538,2.9435,2.9444,2.9449,2.9791,2.9795,2.9799,0,0,0,0,0,0,2.8916,2.894,2.9144,2.9054,2.908,2.9131,2.9185,2.9192,2.9229,2.929,2.93,2.9241,2.9353,2.9374,2.9486,2.9543,2.9448,2.9456,2.9786,2.9792,2.9797,2.984,0,0,0,0,0,0,2.8908,2.8938,2.8982,2.9055,2.9084,2.9238,2.9188,2.9197,2.9244,2.9241,2.9319,2.933,2.9352,2.9473,2.9496,2.9554,2.9464,2.9781,2.9789,2.9795,2.9834,2.9846,2.9857,0,0,0,0,0,2.8899,2.8989,2.8985,2.9009,2.9141,2.9241,2.9259,2.9281,2.9248,2.9296,2.9335,2.9327,2.9533,2.9484,2.951,2.9572,2.9778,2.9787,2.9795,2.9828,2.9844,2.9857,0,0,0,0,0,0,2.8924,2.8999,2.8995,2.9111,2.917,2.9239,2.9299,2.9296,2.9367,2.9361,2.9388,2.9406,2.952,2.9557,2.9501,2.9697,2.9652,2.9666,2.9668,2.9684,2.9695,2.9684,2.9471,0,0,0,0,0,2.8943,2.9016,2.9078,2.9175,2.9205,2.9247,2.9292,2.9304,2.9367,2.9392,2.944,2.9504,2.9584,2.9636,2.9712,2.9839,2.9858,2.9895,2.9907,2.9916,2.9928,3.0002,3.002,2.9827,2.9827,2.9827,0,0,2.8983,2.9033,2.9078,2.9182,2.9229,2.9307,2.9268,2.9352,2.9411,2.9406,2.9515,2.9553,2.9626,2.9747,2.9803,2.9782,2.9986,2.9927,2.9934,2.9942,3.0013,3.0031,3.0047,2.9833,2.9832,2.9831,0,0,2.9097,2.9141,2.9228,2.9276,2.9347,2.9375,2.9396,2.9467,2.9491,2.96,2.9599,2.9672,2.9807,2.9861,2.9905,3.0043,3.0039,3.0067,3.0129,3.0201,3.0216,3.023,3.0282,3.03,3.0079,3.0079,3.008,0,2.9139,2.9254,2.9273,2.9358,2.9406,2.9403,2.9494,2.954,2.9634,2.9668,2.9643,2.9815,2.9864,2.9999,3.0033,3.0068,3.0096,3.0059,3.0212,3.0226,3.0239,3.0289,3.0308,3.0082,3.0082,3.0082,3.0082,0,2.9304,2.9384,2.9446,2.9535,2.9589,2.9677,2.9713,2.9766,2.9774,2.9806,2.992,2.9979,3.0069,3.0101,3.0111,3.0239,3.0225,3.0205,3.016,3.026,3.0308,3.0327,3.0087,3.0086,3.0085,3.0084,0,0,2.9436,2.9536,2.9559,2.9601,2.968,2.9745,2.9834,2.992,2.9966,3.0032,3.011,3.0226,3.0209,3.026,3.0276,3.0339,3.0448,3.0312,3.0315,3.0338,3.0597,3.0612,3.0634,3.0445,3.0449,3.0452,3.0592,0,2.956,2.9715,2.9736,2.9875,2.9952,2.9952,3.003,3.009,3.0122,3.0195,3.0232,3.0315,3.0285,3.0316,3.0378,3.0421,3.0501,3.0411,3.0522,3.0525,3.0504,3.0658,3.0674,3.0803,3.061,3.0613,3.0616,0,2.9724,2.9793,2.9939,3.0011,3.0044,3.0113,3.0196,3.0264,3.0333,3.0353,3.0411,3.042,3.0516,3.0466,3.0602,3.0541,3.0587,3.0616,3.0622,3.0634,3.0577,3.0677,3.0844,3.0864,3.0645,3.0642,3.064,0,2.981,2.9939,3.0044,3.0079,3.0165,3.0215,3.0254,3.0319,3.0371,3.0444,3.0478,3.0562,3.0609,3.0675,3.0708,3.0668,3.0843,3.0795,3.0865,3.0864,3.0902,3.09,3.1081,3.093,3.0929,3.0929,3.0928,0,2.9946,3.0036,3.0083,3.0148,3.025,3.0276,3.0377,3.0415,3.0474,3.0549,3.0555,3.0625,3.0663,3.0741,3.0767,3.0877,3.0898,3.0919,3.0926,3.092,3.0917,3.0952,3.0945,3.0934,3.0933,3.0932,3.0931,0,3.0059,3.0094,3.0208,3.0281,3.0301,3.0374,3.0438,3.0502,3.0535,3.063,3.0654,3.0707,3.0798,3.0837,3.095,3.0968,3.1095,3.1094,3.1071,3.1074,3.1143,3.1136,3.1354,3.1385,3.1211,3.1212,3.1214,0,3.0144,3.0214,3.0294,3.0343,3.0383,3.0462,3.0515,3.0544,3.06,3.0685,3.0741,3.0832,3.0906,3.1054,3.1104,3.1192,3.1194,3.1265,3.1208,3.1201,3.1199,3.1195,3.1203,3.1275,3.1277,3.1279,3.128,0,3.0294,3.0308,3.0382,3.0464,3.0526,3.0592,3.0656,3.0697,3.0737,3.08,3.0892,3.095,3.1066,3.1158,3.1249,3.1293,3.1295,3.1297,3.1319,3.1314,3.1299,3.1311,3.1102,3.1292,3.1291,3.129,3.1289,3.1289,3.0397,3.046,3.0527,3.061,3.0662,3.0723,3.0788,3.0829,3.0906,3.1001,3.1014,3.1115,3.1186,3.1308,3.1356,3.1437,3.142,3.145,3.1458,3.1466,3.1471,3.1284,3.1454,3.1453,3.1453,3.1453,3.1452,0,3.0549,3.0592,3.0669,3.0758,3.0825,3.0819,3.0891,3.0948,3.1035,3.1101,3.1174,3.1283,3.1373,3.1431,3.1523,3.1577,3.1581,3.16,3.1598,3.1608,3.148,3.1453,3.1596,3.1596,3.1596,3.1596,3.1596,3.1596,3.0636,3.0742,3.0765,3.0899,3.0942,3.1039,3.1081,3.1139,3.1191,3.1312,3.1386,3.1422,3.1486,3.1583,3.1667,3.1682,3.1717,3.1738,3.1753,3.1632,3.1617,3.1603,3.1578,3.1745,3.1745,3.1875,3.1876,3.1877]},{"header":{"parameterUnit":"m.s-1","parameterCategory":1,"la1":30.2991,"la2":30.254,"lo1":-89.0895,"lo2":-89.0444,"dy":0.0017,"dx":0.0017,"nx":28,"ny":28,"refTime":"2024-08-17T09:00:00:Z","depth":0,"parameterNumber":3,"parameterNumberName":"V-component_of_WINDS"},"data":[0,0,0,0,0,0,0,0,0,0,0,0,0,0,0,0,0,0,0,0,0,0,0,0,0,0,0,0,0,0,0,0,0,0,0,0,0,0,0,0,0,0,0,0,0,0,0,0,0,0,0,0,0,0,0,0,0,0,0.9354,0.9355,0,0.9432,0.9432,0.9433,0.9423,0.9422,0.942,0.9419,0.9495,0.9498,0.9501,0,0,0,0,0,0,0,0,0,0,0,0,0,0.9193,0.9196,0.9354,0.9355,0.9356,0.9431,0.9433,0.9434,0.9423,0.9422,0.942,0.9419,0.9494,0.9497,0.9501,0,0,0,0,0,0,0,0,0,0,0,0,0,0.9266,0.9197,0.9354,0.936,0.9362,0.9431,0.9433,0.9434,0.9423,0.9422,0.942,0.9418,0.9492,0.9497,0.9502,0.9569,0,0,0.9516,0.9518,0,0,0,0,0,0,0,0,0.9262,0.9272,0.9358,0.936,0.9362,0.9416,0.9403,0.9479,0.9424,0.94,0.9419,0.9417,0.947,0.9476,0.9495,0.9572,0.9576,0.9517,0.952,0.9522,0.9523,0,0,0,0,0,0,0,0.9257,0.9268,0.9385,0.936,0.9362,0.9357,0.9366,0.9418,0.9444,0.9402,0.9401,0.9411,0.947,0.949,0.9496,0.9577,0.9516,0.9521,0.9524,0.9526,0.9711,0.9712,0,0,0,0,0,0,0.9251,0.9264,0.9382,0.9387,0.9306,0.9362,0.9371,0.94,0.9444,0.9449,0.9412,0.941,0.9483,0.9491,0.9499,0.9578,0.9522,0.9526,0.9529,0.9708,0.9711,0.9713,0,0,0,0,0,0,0.9247,0.9261,0.9379,0.9326,0.934,0.9367,0.9399,0.9403,0.9423,0.9452,0.9456,0.9428,0.9482,0.9492,0.9551,0.9581,0.9528,0.9532,0.9706,0.9709,0.9712,0.9739,0,0,0,0,0,0,0.9243,0.926,0.9287,0.9326,0.9343,0.9432,0.9401,0.9406,0.9431,0.9429,0.9468,0.9472,0.9481,0.9544,0.9556,0.9587,0.9536,0.9703,0.9707,0.9711,0.9736,0.9743,0.9749,0,0,0,0,0,0.9237,0.9292,0.9289,0.9303,0.9378,0.9434,0.9443,0.9453,0.9434,0.946,0.9479,0.9471,0.9576,0.955,0.9563,0.9596,0.9702,0.9706,0.9711,0.9733,0.9742,0.9749,0,0,0,0,0,0,0.9255,0.9297,0.9294,0.9364,0.9395,0.9432,0.9466,0.9463,0.9499,0.9495,0.9505,0.9514,0.9573,0.9591,0.9561,0.9662,0.9636,0.9643,0.9648,0.9657,0.9663,0.9657,0.954,0,0,0,0,0,0.9267,0.931,0.9344,0.9402,0.9418,0.9439,0.9464,0.9469,0.9501,0.9514,0.9537,0.9568,0.9607,0.9633,0.9672,0.9739,0.9745,0.9767,0.9774,0.9779,0.9785,0.9819,0.9829,0.9728,0.9728,0.9728,0,0,0.9292,0.9321,0.9347,0.9406,0.9431,0.9474,0.945,0.9497,0.9528,0.9521,0.9578,0.9595,0.963,0.9693,0.9721,0.9709,0.9814,0.9785,0.9789,0.9792,0.9825,0.9834,0.9843,0.9731,0.9731,0.973,0,0,0.9359,0.9387,0.9437,0.9462,0.95,0.9514,0.9526,0.9563,0.9574,0.9632,0.9627,0.9663,0.9732,0.9756,0.9777,0.9852,0.9845,0.9864,0.9898,0.9931,0.9939,0.9946,0.997,0.9979,0.987,0.987,0.987,0,0.9385,0.9451,0.9462,0.9509,0.9534,0.9531,0.958,0.9604,0.9652,0.9668,0.9654,0.9739,0.9763,0.983,0.9848,0.9866,0.9878,0.9859,0.9937,0.9944,0.9951,0.9974,0.9984,0.9872,0.9872,0.9872,0.9872,0,0.948,0.9525,0.9561,0.9608,0.9637,0.9685,0.9701,0.9729,0.9731,0.9746,0.9802,0.983,0.9873,0.989,0.9892,0.9956,0.9947,0.9935,0.9909,0.9962,0.9984,0.9993,0.9875,0.9874,0.9874,0.9873,0,0,0.956,0.9613,0.9626,0.9646,0.9688,0.9722,0.9768,0.9811,0.9833,0.9867,0.9904,0.9962,0.995,0.9975,0.998,1.0009,1.0063,0.9993,0.9994,1.0003,1.0133,1.014,1.015,1.006,1.0061,1.0063,1.0129,0,0.963,0.9714,0.9725,0.9798,0.9838,0.9835,0.9875,0.9904,0.9918,0.9953,0.9968,1.0008,0.9991,1.0005,1.0034,1.0051,1.0089,1.0046,1.0092,1.0094,1.0082,1.0162,1.0171,1.0232,1.0138,1.0139,1.014,0,0.9723,0.9759,0.9836,0.987,0.9888,0.9924,0.9962,0.9997,1.0028,1.0036,1.0063,1.0063,1.0109,1.0082,1.0144,1.0114,1.0133,1.0144,1.0147,1.015,1.0119,1.0165,1.0252,1.026,1.0154,1.0153,1.0152,0,0.9771,0.9839,0.9893,0.9911,0.9953,0.9978,0.9996,1.0026,1.005,1.0084,1.0099,1.0137,1.0157,1.0186,1.0196,1.0176,1.0256,1.0231,1.0262,1.0262,1.0278,1.0277,1.0367,1.0294,1.0294,1.0293,1.0293,0,0.9846,0.9893,0.9915,0.9949,1.0,1.0012,1.0062,1.0079,1.0105,1.014,1.0139,1.0172,1.0184,1.0218,1.0226,1.0274,1.0284,1.029,1.0291,1.0289,1.0288,1.0301,1.0296,1.0296,1.0295,1.0295,1.0294,0,0.9908,0.9925,0.9984,1.0019,1.0028,1.0065,1.0093,1.0124,1.0138,1.0182,1.0193,1.0214,1.0253,1.0267,1.0315,1.032,1.0375,1.0374,1.0365,1.0365,1.0395,1.0391,1.0495,1.0508,1.0428,1.0429,1.0429,0,0.9954,0.999,1.0029,1.0053,1.0072,1.0111,1.0135,1.0147,1.0172,1.021,1.0236,1.0276,1.0308,1.0371,1.0389,1.0425,1.0423,1.0457,1.0428,1.0424,1.0421,1.0418,1.042,1.0462,1.0462,1.0463,1.0464,0,1.0033,1.004,1.0076,1.0115,1.0145,1.0176,1.0206,1.0225,1.0241,1.0269,1.031,1.0335,1.0384,1.0422,1.0459,1.0475,1.0471,1.0473,1.0481,1.0479,1.0471,1.0473,1.0377,1.047,1.0469,1.0469,1.0468,1.0468,1.0087,1.0118,1.015,1.019,1.0214,1.0241,1.0272,1.0289,1.0324,1.0365,1.037,1.0413,1.0441,1.049,1.0508,1.0541,1.0531,1.0545,1.0548,1.055,1.0551,1.0467,1.0548,1.0548,1.0548,1.0547,1.0547,0,1.0165,1.0185,1.0222,1.0263,1.0294,1.029,1.0322,1.0347,1.0386,1.0413,1.0445,1.0491,1.0528,1.0548,1.0585,1.0607,1.0605,1.0615,1.0613,1.0616,1.0559,1.0547,1.0616,1.0616,1.0616,1.0616,1.0616,1.0616,1.0208,1.026,1.027,1.0332,1.0352,1.0395,1.0414,1.0438,1.046,1.0511,1.0542,1.0556,1.058,1.0618,1.065,1.0655,1.0668,1.0678,1.0682,1.0628,1.0621,1.0614,1.0602,1.0682,1.0682,1.0736,1.0737,1.0737]}]]